SCP
0 0 0 0 0 0 0 0 0 0 0 0 0 0 0 0 0 0 0 0 0 0 0 0 0 0 0 0 0 0 0 0 0 0 0 0 0 0 0 0 0 0 0 0
0 0 0 0 0 0 0 0 0 0 0 0 0 0 0 0 0 -0 0 0 0 0 0 0 0 0 0 0 0 0 0 0 0 0 0 0 0 0 0 0 0 0 0 0
0 0 0 0 0 0 0 0 0 0 0 0 0 0 0 0 0 0 0 0 0 0 0 0 0 0 0 0 0 0 0 0 0 0 0 0 0 0 0 0 0 0 0 0
0 0 0 0 0 0 0 0 0 0 0 0 0 0 0 0 0 0 0 0 0 0 0 0 0 0 0 0 0 0 0 0 0 0 0 0 0 0 0 0 0 0 0 0
0 0 0 0 0 0 0 0 0 0 0 0 0 0 0 0 0 0 0 0 0 0 0 0 0 0 0 0 0 0 0 0 0 0 0 0 0 0 0 0 0 0 0 0
0 0 0 0 0 0 0 0 0 0 0 0 0 0 0 0 0 0 0 0 0 0 0 0 0 0 0 0 0 0 0 0 0 0 0 0 0 0 0 0 0 0 0 0
0 0 0 0 0 0 0 0 0 0 0 0 0 0 0 0 0 0 0 0 0 0 0 0 0 0 0 0 0 0 0 0 0 0 0 0 0 0 0 0 0 0 0 0
0 0 0 0 0 0 0 0 0 0 0 0 0 0 0 0 0 0 0 0 0 0 0 0 0 0 0 0 0 0 0 0 0 0 0 0 0 0 0 0 0 0 0 0
0 0 0 0 0 0 0 0 0 0 0 0 0 0 0 0 0 0 0 0 0 0 0 0 0 0 0 0 0 0 0 0 0 0 0 0 0 0 0 0 0 0 0 0
0 0 0 0 -0 -0 -0 -0 -0 -0 -0 0 0 0 0 0 0 0 0 0 0 0 0 0 0 0 0 0 0 0 0 0 0 0 0 0 0 0 0 0 0 0 0 0
-0 -0 -0 -0 -0 -0 -0 -0 -0 -0 -0 -0 -0 -0 -0 0 0 -0 -0 0 0 0 0 0 0 0 0 0 0 0 0 0 0 0 0 0 0 0 0 0 0 0 0 0
-0 -0 -0 -0 -0 -0 -0 -0 -0 -0 -0 0 0 -0 -0 -0 -0 -0 0 -0 0 0 0 0 0 0 0 0 0 0 0 0 0 0 0 0 0 0 0 0 0 0 0 0
0 0 -0 -0 -0 -0 -0 -0 -0 -0 0 -0 0 0 0 -0 -0 0 0 0 0 0 0 0 0 0 0 0 0 0 0 0 0 0 0 0 0 0 0 0 0 0 0 0
0 0 0 0 -0 0 -0 -0 0 -0 -0 0 0 0 0 0 0 0 0 0 0 0 0 0 0 0 0 0 0 0 0 0 0 0 0 0 0 0 0 0 0 0 0 0
0 0 0 0 0 0 -0 -0 0 0 0 0 0 0 0 0 0 0 0 0 0 0 0 0 0 0 0 0 0 0 0 0 0 0 0 0 0 0 0 0 0 0 0 0
0 -0 -0 -0 -0 0 -0 -0 -0 0 0 0 0 0 0 0 0 0 0 0 0 0 0 0 0 0 0 0 0 0 0 0 0 0 0 0 0 0 0 0 0 0 0 0
0 -0 -0 -0 -0 -0 -0 -0 -0 0 0 0 0 -0 0 0 0 0 0 0 0 0 0 0 0 0 0 0 0 0 0 0 0 0 0 0 0 0 0 0 0 0 0 0
0 -0 -0 -0 0 -0 0 -0 -0 -0 0 0 0 0 0 0 0 0 0 0 0 0 0 0 0 0 0 0 0 0 0 0 0 0 0 0 0 0 0 0 0 0 0 0
-0 -0 -0 -0 0 0 0 0 0 0 0 0 0 0 0 0 0 0 0 0 0 0 0 0 0 0 0 0 0 0 0 0 0 0 0 0 0 0 0 0 0 0 0 0
-0 -0 -0 -0 -0 -0 -0 0 0 -0 0 0 0 0 0 0 0 0 0 0 0 0 0 0 0 0 0 0 0 0 0 0 0 0 0 0 0 0 0 0 0 0 0 0
-0 -0 -0 -0 -0 -0 0 -0 -0 -0 -0 0 0 -0 0 0 0 0 0 0 0 0 0 0 0 0 0 0 0 0 0 0 0 0 0 0 0 0 0 0 0 0 0 0
-0 -0 -0 -0 -0 -0 0 0 -0 0 0 0 0 0 0 0 0 0 0 0 0 0 0 0 0 0 0 0 0 0 0 0 0 0 0 0 0 0 0 0 0 0 0 0
-0 -0 -0 -0 -0 -0 -0 -0 0 0 0 0 0 0 0 0 0 0 0 0 0 0 0 0 0 -0 0 0 0 0 0 0 0 0 0 0 0 0 0 0 0 0 0 0
-0 -0 -0 0 -0 -0 0 -0 -0 -0 0 0 -0 0 0 0 0 0 0 0 0 0 0 0 0 0 0 0 0 0 0 0 0 0 0 0 0 0 0 0 0 0 0 0
-0 -0 0 0 0 0 -0 -0 0 0 -0 -0 0 -0 0 0 -0 -0 0 0 -0 0 0 -0 -0 0 0 0 0 0 0 0 0 0 0 0 0 0 0 0 0 0 0 0
-0 0 0 0 0 0 0 0 -0 -0 -0 -0 -0 -0 -0 -0 -0 -0 -0 0 0 0 0 0 0 0 0 0 0 0 0 0 0 0 0 0 0 0 0 0 0 0 0 0
-0 -0 0 0 0 0 0 0 -0 -0 -0 -0 -0 -0 -0 -0 -0 -0 0 0 0 0 0 0 0 0 0 0 0 0 0 0 0 0 0 0 0 0 0 0 0 0 0 0
Wind_Speed_500mb
52 54 61 65 61 59 40 39 41 55 53 59 64 41 49 53 63 45 54 62 69 70 75 81 80 80 84 88 88 87 86 87 92 95 94 90 78 77 75 71 66 61 55 51
44 54 63 68 65 66 74 69 69 75 71 70 68 83 67 77 73 67 67 70 66 65 65 68 77 83 82 88 91 88 84 86 90 93 92 84 75 76 76 70 63 58 53 49
36 47 49 42 69 74 69 66 66 60 82 91 67 66 72 76 75 75 69 80 68 67 68 69 59 61 67 75 84 82 81 82 86 88 86 77 72 77 76 68 62 56 51 47
36 30 45 48 51 66 77 74 71 62 65 69 71 99 92 72 76 84 82 76 87 85 67 48 46 48 50 66 75 77 81 83 85 88 81 76 75 79 76 67 59 51 48 46
22 33 44 13 37 53 56 65 65 58 62 69 92 79 64 87 92 82 88 96 90 76 61 53 49 48 47 56 66 75 79 82 86 84 81 80 82 82 73 64 56 52 47 44
35 33 37 31 48 55 41 31 36 44 53 51 38 26 34 102 74 54 58 59 58 62 48 45 45 43 45 51 60 69 74 80 81 79 77 78 79 76 69 59 55 48 45 41
43 36 26 14 27 14 16 29 38 54 49 30 19 23 55 62 56 57 51 44 46 46 47 41 44 48 51 57 62 62 71 76 79 79 77 78 77 75 68 58 53 48 42 40
26 35 40 26 14 20 27 61 45 43 56 55 49 56 52 52 47 40 42 44 57 59 53 50 48 53 59 66 61 64 70 74 75 75 78 82 79 71 61 55 53 48 42 35
10 11 30 21 25 69 64 32 31 50 55 50 57 51 51 54 55 52 52 49 53 46 54 52 55 60 65 69 67 70 70 74 72 76 84 83 76 65 56 55 49 43 36 28
24 14 47 81 73 46 42 39 48 54 55 54 59 68 76 77 84 86 68 58 60 55 55 64 76 70 68 71 73 70 71 73 75 87 89 82 72 62 61 53 48 42 33 23
48 39 56 58 55 65 73 67 67 69 67 69 66 71 68 76 83 81 77 61 58 68 69 72 72 71 75 80 78 73 74 78 86 92 88 79 69 64 60 52 43 37 28 19
37 47 44 58 75 75 71 68 66 71 74 65 55 60 64 71 73 77 77 74 72 72 69 69 73 74 80 87 85 85 84 89 99 98 90 81 74 66 56 45 41 34 24 17
37 54 57 61 67 58 68 83 82 60 75 87 88 64 70 73 76 80 83 85 85 89 88 86 85 86 82 90 91 90 90 101 107 100 92 84 76 67 60 52 43 34 25 17
31 49 42 38 39 86 72 69 80 97 95 73 78 74 61 69 76 80 82 83 84 85 85 88 87 93 91 91 89 88 92 106 107 99 92 81 75 64 59 52 48 37 27 18
37 35 43 70 68 81 78 65 82 90 86 94 88 87 81 72 71 75 80 78 76 78 80 86 89 90 85 82 90 98 105 108 103 94 85 78 69 65 57 48 42 35 30 23
57 55 46 50 78 88 75 74 66 84 83 84 86 86 85 86 94 100 97 82 71 78 78 84 93 95 91 86 94 101 104 107 98 94 83 73 67 62 57 51 43 36 32 26
49 49 64 73 66 89 87 81 73 81 94 91 94 100 101 94 98 106 106 93 75 84 85 91 88 94 88 87 97 108 118 109 103 90 79 75 66 58 53 50 44 40 36 29
44 52 57 66 77 86 99 81 82 82 86 96 102 101 99 94 93 101 98 85 75 72 77 80 80 78 76 81 95 110 115 110 100 85 77 69 63 59 54 49 45 41 38 30
58 70 72 66 72 81 90 96 90 92 92 96 99 101 100 103 103 102 91 82 73 71 74 73 68 67 71 86 101 111 106 98 88 81 72 67 65 58 54 49 44 41 32 26
78 74 77 78 72 73 85 84 88 89 88 87 90 92 96 97 99 95 86 83 73 71 73 62 63 66 78 93 109 103 95 85 78 73 71 69 61 57 52 45 43 35 28 23
77 76 74 74 79 76 78 78 79 80 79 80 77 76 76 69 60 48 50 40 31 47 49 55 56 70 89 104 106 95 86 78 70 71 69 64 60 54 50 46 39 33 26 20
75 75 76 76 75 76 75 74 60 60 63 52 51 43 35 26 15 2 12 28 33 33 43 56 68 83 95 97 92 85 76 70 69 64 61 58 54 52 48 42 36 30 24 16
74 76 75 75 74 72 69 55 50 52 46 38 34 29 22 16 9 8 25 31 41 46 55 65 75 84 87 88 82 74 68 64 59 57 54 50 46 43 41 37 32 26 20 14
73 71 72 67 61 60 59 53 41 36 29 24 22 19 13 11 21 26 37 43 49 51 52 64 73 78 84 79 71 65 61 56 53 50 47 44 42 38 35 30 25 21 16 11
60 65 58 58 55 54 51 42 33 27 27 27 25 22 17 19 29 38 40 42 48 57 65 69 79 76 68 64 59 55 51 46 44 41 39 36 34 32 28 23 20 15 11 9
55 53 53 43 42 41 39 36 36 34 32 38 40 43 45 46 46 48 54 58 60 69 73 71 65 57 55 52 49 45 41 39 37 33 30 29 27 24 21 17 14 11 9 10
47 44 49 46 42 37 36 35 39 40 37 42 46 43 42 45 50 55 58 62 64 65 65 59 51 47 46 44 41 38 35 32 29 26 25 22 20 17 15 13 11 10 12 13
Wind_Direction_500mb
243 248 259 258 262 275 268 266 264 275 268 272 272 268 265 269 273 265 271 277 275 272 272 270 263 259 257 254 254 249 242 242 240 237 238 239 236 232 227 228 233 239 245 253
233 236 243 252 257 260 256 255 247 250 266 258 265 275 276 272 274 278 280 278 276 275 272 268 268 265 260 256 253 248 244 242 236 235 236 235 232 228 225 228 233 241 248 253
244 231 237 244 238 243 252 247 246 246 241 253 258 256 262 271 276 277 275 276 274 272 278 286 275 266 264 261 253 245 242 236 234 233 232 232 230 223 222 226 233 240 247 254
249 234 230 230 241 233 239 243 248 248 253 253 253 257 259 265 271 274 273 279 279 282 285 276 266 258 254 249 245 241 236 233 231 230 229 227 225 220 220 224 231 239 247 252
240 236 253 273 230 223 221 238 242 254 250 250 253 262 280 266 260 262 272 275 276 278 280 275 265 259 248 240 237 235 233 231 230 228 225 220 213 213 218 224 229 237 244 251
241 248 249 244 237 251 251 259 254 241 247 246 247 248 252 265 272 267 272 272 270 273 268 265 263 254 242 238 233 230 229 226 226 225 223 217 211 210 215 220 230 233 240 252
241 251 255 225 266 357 245 268 252 263 263 277 265 263 264 279 286 288 280 271 283 270 266 263 264 253 247 238 234 233 230 226 223 220 216 211 208 210 213 217 226 231 240 248
234 238 248 356 316 263 332 325 353 4 352 343 336 333 335 333 334 324 313 311 300 284 267 266 266 259 253 245 239 232 230 227 221 214 206 204 207 208 210 216 222 227 232 241
312 332 318 292 307 304 301 312 338 323 319 324 323 329 334 331 325 319 311 307 298 288 276 277 271 261 255 250 242 234 231 224 217 207 201 201 204 206 211 220 222 225 230 232
306 325 307 296 305 325 330 334 330 325 319 319 314 306 306 307 303 302 302 301 295 282 282 289 285 264 256 249 241 235 231 222 208 201 196 196 199 202 212 216 219 223 225 235
297 290 304 297 312 309 308 308 314 311 306 300 295 289 292 297 298 299 300 294 284 278 278 278 272 265 257 250 241 233 226 218 205 199 196 193 198 206 212 211 221 222 223 219
286 294 295 302 316 316 316 318 311 311 304 300 303 300 303 297 295 290 289 289 287 283 281 280 278 266 256 248 241 229 218 209 202 196 192 193 194 196 200 206 207 210 204 210
301 318 311 302 304 306 315 310 310 303 299 303 302 301 292 292 291 287 287 286 283 278 278 273 268 262 253 245 235 226 215 206 198 193 194 192 193 194 197 194 193 195 191 189
341 338 318 320 311 308 312 305 304 303 301 301 299 299 295 292 291 287 285 284 281 281 282 276 268 256 248 237 226 219 212 205 195 196 194 193 193 194 198 199 188 181 180 175
339 332 303 302 308 307 312 316 315 311 311 309 309 305 306 303 296 290 286 282 284 286 279 272 263 253 246 237 224 211 203 196 196 193 192 193 193 193 191 188 184 176 171 164
316 317 317 306 309 309 311 312 310 304 306 305 304 303 301 296 294 291 286 285 283 280 278 275 267 257 247 231 214 208 198 193 192 193 189 193 189 186 182 182 177 173 168 164
326 325 321 312 310 306 306 306 303 299 300 300 298 301 300 296 294 291 291 291 281 272 270 268 260 252 238 222 212 202 191 189 191 185 190 186 184 179 179 177 173 171 168 166
306 296 297 294 299 302 303 303 301 299 297 299 300 299 297 294 288 290 292 290 286 275 267 259 247 241 226 211 200 195 190 185 183 182 182 181 179 177 175 176 172 171 165 160
316 308 308 301 299 297 297 299 299 300 300 300 300 297 298 295 295 294 290 280 275 253 248 241 233 223 206 196 195 189 187 179 175 174 177 177 175 173 174 174 171 168 160 159
317 315 311 305 302 298 297 297 297 297 300 303 303 297 295 294 293 284 285 276 272 242 231 224 210 199 195 193 189 186 182 175 170 174 173 174 172 172 172 170 171 161 158 157
317 315 309 307 306 305 302 302 303 303 311 304 306 300 306 311 304 287 266 222 196 209 208 206 197 190 187 187 183 177 172 169 172 174 174 171 170 171 170 171 164 162 161 160
316 312 311 311 311 309 312 313 317 313 313 314 311 309 308 322 352 217 174 184 157 173 175 176 174 175 181 178 171 166 165 170 173 172 170 172 172 171 170 166 164 165 164 162
317 316 315 317 315 314 320 325 324 320 322 328 330 331 333 340 9 93 113 134 152 161 163 165 169 177 171 163 159 159 164 168 168 169 170 169 168 170 169 165 168 168 170 179
322 327 322 322 330 333 332 340 339 336 336 348 355 349 0 41 72 95 120 131 143 152 153 152 167 162 157 155 153 158 161 163 165 166 165 166 169 170 168 170 172 178 185 196
337 331 332 342 342 342 347 354 358 10 18 28 33 42 58 88 107 114 122 124 134 138 140 152 151 152 151 146 153 154 155 158 160 162 161 164 168 170 173 177 186 195 207 231
342 343 351 355 353 358 6 18 26 34 48 60 70 78 86 98 107 114 121 131 138 139 138 142 143 141 138 145 146 147 149 150 151 153 159 164 169 174 181 192 206 223 244 267
353 3 3 8 16 20 29 40 50 50 65 70 78 89 100 108 116 121 126 128 128 127 128 128 126 132 135 134 136 137 139 143 146 153 159 166 172 183 197 212 229 249 265 275
Wind_Speed_850mb
52 54 61 65 61 59 40 39 41 55 53 59 64 41 49 53 63 45 54 62 69 70 75 81 80 80 84 88 88 87 86 87 92 95 94 90 78 77 75 71 66 61 55 51
44 54 63 68 65 66 74 69 69 75 71 70 68 83 67 77 73 67 67 70 66 65 65 68 77 83 82 88 91 88 84 86 90 93 92 84 75 76 76 70 63 58 53 49
36 47 49 42 69 74 69 66 66 60 82 91 67 66 72 76 75 75 69 80 68 67 68 69 59 61 67 75 84 82 81 82 86 88 86 77 72 77 76 68 62 56 51 47
36 30 45 48 51 66 77 74 71 62 65 69 71 99 92 72 76 84 82 76 87 85 67 48 46 48 50 66 75 77 81 83 85 88 81 76 75 79 76 67 59 51 48 46
22 33 44 13 37 53 56 65 65 58 62 69 92 79 64 87 92 82 88 96 90 76 61 53 49 48 47 56 66 75 79 82 86 84 81 80 82 82 73 64 56 52 47 44
35 33 37 31 48 55 41 31 36 44 53 51 38 26 34 102 74 54 58 59 58 62 48 45 45 43 45 51 60 69 74 80 81 79 77 78 79 76 69 59 55 48 45 41
43 36 26 14 27 14 16 29 38 54 49 30 19 23 55 62 56 57 51 44 46 46 47 41 44 48 51 57 62 62 71 76 79 79 77 78 77 75 68 58 53 48 42 40
26 35 40 26 14 20 27 61 45 43 56 55 49 56 52 52 47 40 42 44 57 59 53 50 48 53 59 66 61 64 70 74 75 75 78 82 79 71 61 55 53 48 42 35
10 11 30 21 25 69 64 32 31 50 55 50 57 51 51 54 55 52 52 49 53 46 54 52 55 60 65 69 67 70 70 74 72 76 84 83 76 65 56 55 49 43 36 28
24 14 47 81 73 46 42 39 48 54 55 54 59 68 76 77 84 86 68 58 60 55 55 64 76 70 68 71 73 70 71 73 75 87 89 82 72 62 61 53 48 42 33 23
48 39 56 58 55 65 73 67 67 69 67 69 66 71 68 76 83 81 77 61 58 68 69 72 72 71 75 80 78 73 74 78 86 92 88 79 69 64 60 52 43 37 28 19
37 47 44 58 75 75 71 68 66 71 74 65 55 60 64 71 73 77 77 74 72 72 69 69 73 74 80 87 85 85 84 89 99 98 90 81 74 66 56 45 41 34 24 17
37 54 57 61 67 58 68 83 82 60 75 87 88 64 70 73 76 80 83 85 85 89 88 86 85 86 82 90 91 90 90 101 107 100 92 84 76 67 60 52 43 34 25 17
31 49 42 38 39 86 72 69 80 97 95 73 78 74 61 69 76 80 82 83 84 85 85 88 87 93 91 91 89 88 92 106 107 99 92 81 75 64 59 52 48 37 27 18
37 35 43 70 68 81 78 65 82 90 86 94 88 87 81 72 71 75 80 78 76 78 80 86 89 90 85 82 90 98 105 108 103 94 85 78 69 65 57 48 42 35 30 23
57 55 46 50 78 88 75 74 66 84 83 84 86 86 85 86 94 100 97 82 71 78 78 84 93 95 91 86 94 101 104 107 98 94 83 73 67 62 57 51 43 36 32 26
49 49 64 73 66 89 87 81 73 81 94 91 94 100 101 94 98 106 106 93 75 84 85 91 88 94 88 87 97 108 118 109 103 90 79 75 66 58 53 50 44 40 36 29
44 52 57 66 77 86 99 81 82 82 86 96 102 101 99 94 93 101 98 85 75 72 77 80 80 78 76 81 95 110 115 110 100 85 77 69 63 59 54 49 45 41 38 30
58 70 72 66 72 81 90 96 90 92 92 96 99 101 100 103 103 102 91 82 73 71 74 73 68 67 71 86 101 111 106 98 88 81 72 67 65 58 54 49 44 41 32 26
78 74 77 78 72 73 85 84 88 89 88 87 90 92 96 97 99 95 86 83 73 71 73 62 63 66 78 93 109 103 95 85 78 73 71 69 61 57 52 45 43 35 28 23
77 76 74 74 79 76 78 78 79 80 79 80 77 76 76 69 60 48 50 40 31 47 49 55 56 70 89 104 106 95 86 78 70 71 69 64 60 54 50 46 39 33 26 20
75 75 76 76 75 76 75 74 60 60 63 52 51 43 35 26 15 2 12 28 33 33 43 56 68 83 95 97 92 85 76 70 69 64 61 58 54 52 48 42 36 30 24 16
74 76 75 75 74 72 69 55 50 52 46 38 34 29 22 16 9 8 25 31 41 46 55 65 75 84 87 88 82 74 68 64 59 57 54 50 46 43 41 37 32 26 20 14
73 71 72 67 61 60 59 53 41 36 29 24 22 19 13 11 21 26 37 43 49 51 52 64 73 78 84 79 71 65 61 56 53 50 47 44 42 38 35 30 25 21 16 11
60 65 58 58 55 54 51 42 33 27 27 27 25 22 17 19 29 38 40 42 48 57 65 69 79 76 68 64 59 55 51 46 44 41 39 36 34 32 28 23 20 15 11 9
55 53 53 43 42 41 39 36 36 34 32 38 40 43 45 46 46 48 54 58 60 69 73 71 65 57 55 52 49 45 41 39 37 33 30 29 27 24 21 17 14 11 9 10
47 44 49 46 42 37 36 35 39 40 37 42 46 43 42 45 50 55 58 62 64 65 65 59 51 47 46 44 41 38 35 32 29 26 25 22 20 17 15 13 11 10 12 13
Wind_Direction_850mb
243 248 259 258 262 275 268 266 264 275 268 272 272 268 265 269 273 265 271 277 275 272 272 270 263 259 257 254 254 249 242 242 240 237 238 239 236 232 227 228 233 239 245 253
233 236 243 252 257 260 256 255 247 250 266 258 265 275 276 272 274 278 280 278 276 275 272 268 268 265 260 256 253 248 244 242 236 235 236 235 232 228 225 228 233 241 248 253
244 231 237 244 238 243 252 247 246 246 241 253 258 256 262 271 276 277 275 276 274 272 278 286 275 266 264 261 253 245 242 236 234 233 232 232 230 223 222 226 233 240 247 254
249 234 230 230 241 233 239 243 248 248 253 253 253 257 259 265 271 274 273 279 279 282 285 276 266 258 254 249 245 241 236 233 231 230 229 227 225 220 220 224 231 239 247 252
240 236 253 273 230 223 221 238 242 254 250 250 253 262 280 266 260 262 272 275 276 278 280 275 265 259 248 240 237 235 233 231 230 228 225 220 213 213 218 224 229 237 244 251
241 248 249 244 237 251 251 259 254 241 247 246 247 248 252 265 272 267 272 272 270 273 268 265 263 254 242 238 233 230 229 226 226 225 223 217 211 210 215 220 230 233 240 252
241 251 255 225 266 357 245 268 252 263 263 277 265 263 264 279 286 288 280 271 283 270 266 263 264 253 247 238 234 233 230 226 223 220 216 211 208 210 213 217 226 231 240 248
234 238 248 356 316 263 332 325 353 4 352 343 336 333 335 333 334 324 313 311 300 284 267 266 266 259 253 245 239 232 230 227 221 214 206 204 207 208 210 216 222 227 232 241
312 332 318 292 307 304 301 312 338 323 319 324 323 329 334 331 325 319 311 307 298 288 276 277 271 261 255 250 242 234 231 224 217 207 201 201 204 206 211 220 222 225 230 232
306 325 307 296 305 325 330 334 330 325 319 319 314 306 306 307 303 302 302 301 295 282 282 289 285 264 256 249 241 235 231 222 208 201 196 196 199 202 212 216 219 223 225 235
297 290 304 297 312 309 308 308 314 311 306 300 295 289 292 297 298 299 300 294 284 278 278 278 272 265 257 250 241 233 226 218 205 199 196 193 198 206 212 211 221 222 223 219
286 294 295 302 316 316 316 318 311 311 304 300 303 300 303 297 295 290 289 289 287 283 281 280 278 266 256 248 241 229 218 209 202 196 192 193 194 196 200 206 207 210 204 210
301 318 311 302 304 306 315 310 310 303 299 303 302 301 292 292 291 287 287 286 283 278 278 273 268 262 253 245 235 226 215 206 198 193 194 192 193 194 197 194 193 195 191 189
341 338 318 320 311 308 312 305 304 303 301 301 299 299 295 292 291 287 285 284 281 281 282 276 268 256 248 237 226 219 212 205 195 196 194 193 193 194 198 199 188 181 180 175
339 332 303 302 308 307 312 316 315 311 311 309 309 305 306 303 296 290 286 282 284 286 279 272 263 253 246 237 224 211 203 196 196 193 192 193 193 193 191 188 184 176 171 164
316 317 317 306 309 309 311 312 310 304 306 305 304 303 301 296 294 291 286 285 283 280 278 275 267 257 247 231 214 208 198 193 192 193 189 193 189 186 182 182 177 173 168 164
326 325 321 312 310 306 306 306 303 299 300 300 298 301 300 296 294 291 291 291 281 272 270 268 260 252 238 222 212 202 191 189 191 185 190 186 184 179 179 177 173 171 168 166
306 296 297 294 299 302 303 303 301 299 297 299 300 299 297 294 288 290 292 290 286 275 267 259 247 241 226 211 200 195 190 185 183 182 182 181 179 177 175 176 172 171 165 160
316 308 308 301 299 297 297 299 299 300 300 300 300 297 298 295 295 294 290 280 275 253 248 241 233 223 206 196 195 189 187 179 175 174 177 177 175 173 174 174 171 168 160 159
317 315 311 305 302 298 297 297 297 297 300 303 303 297 295 294 293 284 285 276 272 242 231 224 210 199 195 193 189 186 182 175 170 174 173 174 172 172 172 170 171 161 158 157
317 315 309 307 306 305 302 302 303 303 311 304 306 300 306 311 304 287 266 222 196 209 208 206 197 190 187 187 183 177 172 169 172 174 174 171 170 171 170 171 164 162 161 160
316 312 311 311 311 309 312 313 317 313 313 314 311 309 308 322 352 217 174 184 157 173 175 176 174 175 181 178 171 166 165 170 173 172 170 172 172 171 170 166 164 165 164 162
317 316 315 317 315 314 320 325 324 320 322 328 330 331 333 340 9 93 113 134 152 161 163 165 169 177 171 163 159 159 164 168 168 169 170 169 168 170 169 165 168 168 170 179
322 327 322 322 330 333 332 340 339 336 336 348 355 349 0 41 72 95 120 131 143 152 153 152 167 162 157 155 153 158 161 163 165 166 165 166 169 170 168 170 172 178 185 196
337 331 332 342 342 342 347 354 358 10 18 28 33 42 58 88 107 114 122 124 134 138 140 152 151 152 151 146 153 154 155 158 160 162 161 164 168 170 173 177 186 195 207 231
342 343 351 355 353 358 6 18 26 34 48 60 70 78 86 98 107 114 121 131 138 139 138 142 143 141 138 145 146 147 149 150 151 153 159 164 169 174 181 192 206 223 244 267
353 3 3 8 16 20 29 40 50 50 65 70 78 89 100 108 116 121 126 128 128 127 128 128 126 132 135 134 136 137 139 143 146 153 159 166 172 183 197 212 229 249 265 275